FW3814 Weather Reports


time (UTC)temp
C
wind
direction
speed
KPH
gust
KPH
rain 1hr
cm
rain 24hr
cm
rain mn
cm
humidity
%
barometer
mb
20260506141503 13 49 16.1 20.9 0.00 2.46 1.32 90 1006.1
20260506141003 13 42 14.5 17.7 0.10 2.46 1.32 90 1006.2
20260506140503 13 32 14.5 17.7 0.13 2.46 1.32 91 1006.1
20260506140003 13 19 12.9 17.7 0.23 2.49 1.32 91 1006.0
20260506135503 12 5 11.3 17.7 0.33 2.49 1.32 91 1006.0
20260506135024 12 356 11.3 14.5 0.53 2.49 1.32 91 1006.1
20260506134503 12 3 9.7 14.5 0.56 2.51 1.32 90 1006.0
20260506134003 12 20 9.7 11.3 0.64 2.51 1.32 92 1006.2
20260506133503 11 22 8.0 11.3 0.64 2.51 1.32 92 1006.1
20260506133003 11 10 6.4 9.7 0.64 2.54 1.32 92 1006.1
20260506132503 11 335 8.0 11.3 0.64 2.54 1.32 91 1006.5
20260506132003 10 345 8.0 12.9 0.64 2.54 1.32 91 1006.3
20260506131503 10 24 9.7 12.9 0.64 2.59 1.32 90 1006.4
20260506131003 10 31 9.7 12.9 0.53 2.49 1.22 90 1006.6
20260506130503 10 8 9.7 17.7 0.51 2.46 1.19 90 1006.5
20260506130003 10 333 11.3 17.7 0.38 2.34 1.09 89 1006.5
20260506125503 11 342 12.9 17.7 0.30 2.29 0.99 89 1006.2
20260506125024 11 357 11.3 14.5 0.10 2.06 0.81 89 1006.4
20260506124503 11 2 9.7 17.7 0.05 2.03 0.76 89 1006.4
20260506124003 12 351 14.5 22.5 0.00 1.98 0.69 89 1006.6
20260506123503 12 346 16.1 22.5 0.00 1.98 0.69 86 1006.4
20260506123003 13 5 12.9 16.1 0.00 2.01 0.69 88 1006.4
20260506122524 14 27 11.3 20.9 0.00 2.01 0.69 90 1006.3
20260506122024 15 138 11.3 20.9 0.00 2.01 0.69 91 1006.3
20260506121503 15 140 11.3 19.3 0.00 2.01 0.69 91 1006.0
20260506121024 15 205 14.5 19.3 0.00 2.01 0.69 91 1005.7
20260506120503 15 221 12.9 17.7 0.00 2.03 0.69 92 1005.7
20260506120003 15 191 14.5 17.7 0.00 2.03 0.69 92 1005.6
20260506115503 15 167 16.1 24.1 0.00 2.03 0.69 93 1005.5
20260506115003 15 127 16.1 24.1 0.00 2.03 0.69 93 1005.6
20260506114504 15 149 16.1 20.9 0.00 2.03 0.69 93 1005.5
20260506114005 14 164 17.7 22.5 0.00 2.06 0.69 93 1005.8
20260506113505 14 163 22.5 30.6 0.00 2.06 0.69 93 1005.8
20260506113005 14 157 20.9 30.6 0.00 2.06 0.69 94 1005.6
20260506112504 14 149 17.7 27.4 0.00 2.06 0.69 94 1005.6
20260506112004 14 172 14.5 19.3 0.00 2.11 0.69 94 1005.8
20260506111505 13 188 16.1 20.9 0.00 2.11 0.69 94 1005.9
20260506111004 13 153 17.7 20.9 0.00 2.11 0.69 94 1005.9
20260506110505 13 147 20.9 27.4 0.00 2.11 0.69 94 1006.0
20260506110005 13 147 22.5 30.6 0.00 2.13 0.69 94 1005.7
20260506105505 13 139 25.7 32.2 0.03 2.13 0.69 94 1005.9
20260506105005 13 136 27.4 32.2 0.03 2.13 0.69 94 1006.0
20260506104504 13 122 24.1 30.6 0.03 2.16 0.69 94 1005.8
20260506104025 13 118 20.9 27.4 0.03 2.16 0.69 94 1006.0
20260506103505 13 137 20.9 27.4 0.03 2.16 0.69 94 1006.1
20260506103005 13 134 19.3 29.0 0.03 2.16 0.69 94 1006.1
20260506102505 13 133 20.9 29.0 0.03 2.18 0.69 95 1006.1
20260506102004 13 145 20.9 30.6 0.03 2.18 0.69 95 1006.1
20260506101505 13 138 22.5 30.6 0.03 2.18 0.69 95 1006.2
20260506101004 13 136 22.5 27.4 0.03 2.18 0.69 95 1006.1
20260506100504 13 130 25.7 41.8 0.03 2.21 0.69 95 1006.0
20260506100005 12 128 25.7 41.8 0.03 2.21 0.69 95 1006.0
20260506095505 12 149 20.9 25.7 0.00 2.21 0.66 95 1006.0
20260506095005 12 154 22.5 27.4 0.00 2.21 0.66 95 1006.0
20260506094504 12 136 25.7 33.8 0.00 2.26 0.66 96 1005.9
20260506094005 12 136 20.9 33.8 0.00 2.29 0.66 96 1005.9
20260506093505 12 132 22.5 30.6 0.00 2.29 0.66 96 1006.0
20260506093005 12 134 27.4 33.8 0.00 2.29 0.66 96 1006.0
20260506092505 12 147 25.7 33.8 0.00 2.29 0.66 96 1006.0
20260506092005 12 147 22.5 29.0 0.00 2.31 0.66 96 1005.9
20260506091505 12 140 24.1 30.6 0.00 2.31 0.66 96 1006.0
20260506091005 12 96 27.4 30.6 0.00 2.31 0.66 96 1005.8
20260506090505 12 92 27.4 30.6 0.00 2.34 0.66 96 1005.8
20260506090004 12 124 25.7 32.2 0.00 2.34 0.66 96 1005.7
20260506085505 12 116 27.4 33.8 0.00 2.34 0.66 97 1005.7
20260506085005 12 132 29.0 33.8 0.00 2.34 0.66 97 1005.7
20260506084504 12 154 30.6 37.0 0.00 2.34 0.66 97 1005.7
20260506084005 12 147 27.4 37.0 0.00 2.34 0.66 97 1005.9
20260506083505 12 125 19.3 27.4 0.00 2.34 0.66 97 1005.9
20260506083005 12 131 19.3 29.0 0.00 2.34 0.66 97 1006.0
20260506082504 12 137 25.7 32.2 0.00 2.34 0.66 97 1006.1
20260506082005 12 134 24.1 32.2 0.00 2.34 0.66 97 1006.1
20260506081526 12 132 25.7 37.0 0.00 2.34 0.66 97 1006.1
20260506081005 12 132 27.4 37.0 0.03 2.34 0.66 97 1006.0
20260506080504 12 145 25.7 30.6 0.03 2.36 0.66 97 1006.0
20260506073504 12 153 22.5 29.0 0.03 2.36 0.66 97 1006.0
20260506073005 12 143 24.1 27.4 0.03 2.36 0.66 97 1006.1
20260506072525 12 134 24.1 29.0 0.03 2.36 0.66 97 1005.9
20260506072026 12 132 22.5 33.8 0.03 2.36 0.66 97 1006.0
20260506071504 12 153 19.3 33.8 0.03 2.36 0.66 100 1006.1
20260506071004 12 151 14.5 24.1 0.00 2.36 0.64 100 1006.0
20260506070504 12 129 16.1 19.3 0.00 2.36 0.64 100 1006.2
20260506062505 12 138 17.7 25.7 0.03 2.64 0.64 100 1006.5
20260506062004 12 131 19.3 25.7 0.03 2.67 0.64 100 1006.5
20260506061505 12 133 17.7 25.7 0.03 2.67 0.64 100 1006.6
20260506061005 12 141 12.9 17.7 0.03 2.67 0.64 100 1006.5
20260506060504 12 136 12.9 16.1 0.03 2.69 0.64 100 1006.6
20260506051004 12 189 20.9 24.1 0.00 2.77 0.61 100 1006.7
20260506050504 12 174 20.9 27.4 0.00 2.77 0.61 100 1006.8
20260506045004 12 152 19.3 27.4 0.00 2.79 0.61 97 1006.9
20260506044526 12 156 17.7 24.1 0.00 2.79 0.61 97 1006.7
20260506044004 12 172 17.7 24.1 0.00 2.79 0.61 97 1006.9
20260506043505 12 168 19.3 24.1 0.00 2.79 0.61 97 1007.1
20260506043004 12 177 19.3 24.1 0.03 2.79 0.61 97 1007.2
20260506042504 12 183 19.3 27.4 0.03 2.79 0.61 97 1007.2
20260506042005 12 170 20.9 27.4 0.03 2.79 0.61 97 1007.3
20260506041505 12 145 20.9 27.4 0.03 2.79 0.61 97 1007.2
20260506041004 12 178 24.1 27.4 0.05 2.79 0.61 97 1007.1
20260506040504 12 183 20.9 25.7 0.30 2.82 0.61 97 1007.2
20260506040025 12 151 16.1 25.7 0.30 2.82 0.61 97 1007.3
20260506035504 12 155 14.5 17.7 0.30 2.82 0.61 97 1007.3
20260506035004 12 168 14.5 17.7 0.33 2.82 0.61 97 1007.1
20260506034505 12 169 14.5 22.5 0.43 2.82 0.61 97 1007.2
20260506034004 12 162 14.5 22.5 0.56 2.82 0.61 97 1007.2
20260506033504 12 150 14.5 19.3 0.56 2.82 0.61 97 1007.2
20260506033005 12 142 12.9 19.3 0.53 2.79 0.56 96 1007.3
20260506032504 12 137 11.3 14.5 0.53 2.79 0.56 96 1007.2
20260506032025 12 144 12.9 14.5 0.53 2.79 0.56 96 1007.5
20260506031525 12 142 11.3 17.7 0.53 2.79 0.56 96 1007.2
20260506031004 12 166 8.0 17.7 0.51 2.77 0.53 96 1007.3
20260506030505 12 192 4.8 6.4 0.28 2.51 0.30 96 1007.5
20260506030005 12 142 4.8 8.0 0.28 2.51 0.30 96 1007.7
20260506025525 12 106 4.8 8.0 0.28 2.51 0.30 96 1007.5
20260506025005 12 64 3.2 6.4 0.23 2.49 0.28 96 1007.9
20260506024525 12 75 1.6 4.8 0.15 2.39 0.18 96 1008.0
20260506024025 12 0 0.0 0.0 0.00 2.26 0.03 96 1008.1
20260506023525 12 0 0.0 0.0 0.00 2.26 0.03 96 1008.1
20260506023005 12 0 0.0 0.0 0.00 2.26 0.03 96 1008.3
20260506022504 12 0 0.0 0.0 0.00 2.26 0.03 96 1008.2
20260506022026 12 0 0.0 0.0 0.00 2.26 0.03 96 1008.3
20260506021504 11 0 0.0 0.0 0.00 2.26 0.03 96 1008.3
20260506021005 11 0 0.0 0.0 0.03 2.26 0.03 96 1008.4
20260506020504 11 0 0.0 0.0 0.03 2.26 0.03 96 1008.5
20260506020004 11 0 0.0 0.0 0.03 2.26 0.03 96 1008.4
20260506015525 12 0 0.0 0.0 0.03 2.26 0.03 96 1008.5
20260506015004 12 0 0.0 0.0 0.03 2.26 0.03 96 1008.5
20260506014526 12 0 0.0 0.0 0.03 2.26 0.03 96 1008.5
20260506014004 12 0 0.0 0.0 0.03 2.26 0.03 96 1008.6
20260506013504 12 0 0.0 0.0 0.03 2.26 0.03 96 1008.5
20260506013004 12 0 0.0 0.0 0.03 2.26 0.03 96 1008.4
20260506012504 12 0 0.0 0.0 0.03 2.26 0.03 96 1008.5
20260506012004 12 0 0.0 0.0 0.03 2.26 0.03 96 1008.7
20260506011525 12 0 0.0 0.0 0.03 2.26 0.03 96 1008.7
20260506011004 12 0 0.0 0.0 0.00 2.21 0.00 96 1008.8
20260506010504 12 0 0.0 0.0 0.00 2.21 0.00 96 1008.8
20260506010005 12 0 0.0 0.0 0.00 2.21 0.00 96 1009.0
20260506005525 12 0 0.0 0.0 0.00 2.21 0.00 96 1008.9
20260506005004 12 0 0.0 0.0 0.00 2.21 0.00 96 1009.1
20260506004505 12 0 0.0 0.0 0.00 2.21 0.00 96 1009.1
20260506004004 12 0 0.0 0.0 0.00 2.21 0.00 96 1009.2
20260506003505 12 0 0.0 0.0 0.00 2.21 0.00 96 1009.2
20260506003005 12 105 1.6 4.8 0.00 2.21 0.00 96 1009.2
20260506002504 12 112 1.6 6.4 0.00 2.21 0.00 96 1009.3
20260506002004 12 120 1.6 6.4 0.00 2.21 0.00 96 1009.2
20260506001504 12 0 0.0 0.0 0.00 2.21 0.00 96 1009.4
20260506001005 12 0 0.0 0.0 0.00 2.21 0.00 96 1009.3
20260506000505 12 0 0.0 0.0 0.00 2.21 0.00 96 1009.3
20260506000005 12 85 0.0 3.2 0.00 2.21 0.00 96 1009.3
20260505235525 12 140 1.6 4.8 0.00 2.21 0.00 95 1009.5
20260505235004 12 153 3.2 6.4 0.00 2.21 0.00 95 1009.6
20260505234504 12 166 3.2 6.4 0.00 2.21 0.00 95 1009.9
20260505234005 12 189 3.2 4.8 0.00 2.21 0.00 95 1009.9
20260505233504 12 152 4.8 6.4 0.00 2.21 0.00 95 1009.9
20260505233005 12 145 3.2 6.4 0.00 2.21 0.00 95 1009.9
20260505232504 12 0 0.0 0.0 0.00 2.21 0.00 95 1009.7
20260505232004 12 0 0.0 0.0 0.00 2.21 0.00 95 1009.7
20260505231504 12 0 0.0 0.0 0.00 2.21 0.00 95 1010.0
20260505231004 12 0 0.0 0.0 0.00 2.21 0.00 95 1009.9
20260505230504 12 0 0.0 0.0 0.00 2.21 0.00 95 1010.1
20260505230004 12 0 0.0 0.0 0.00 2.21 0.00 95 1010.1
20260505225504 12 0 0.0 0.0 0.03 2.21 0.00 95 1010.2
20260505225025 12 0 0.0 0.0 0.03 2.21 0.00 95 1010.1
20260505224525 12 203 1.6 6.4 0.03 2.21 0.00 95 1010.1
20260505224004 12 162 4.8 6.4 0.05 2.21 0.00 95 1010.1
20260505223504 12 149 4.8 6.4 0.10 2.21 0.00 95 1010.1
20260505223004 12 140 3.2 4.8 0.13 2.21 0.00 95 1010.2
20260505222525 12 90 0.0 4.8 0.15 2.21 0.00 95 1010.2
20260505222004 12 190 1.6 8.0 0.18 2.21 0.00 95 1010.1
20260505221525 12 127 4.8 8.0 0.18 2.21 0.00 95 1010.2
20260505221025 12 72 6.4 8.0 0.18 2.21 0.00 95 1010.1
20260505220504 12 81 8.0 8.0 0.18 2.21 0.00 95 1010.1
20260505220025 12 99 6.4 8.0 0.18 2.21 0.00 95 1010.2
20260505215504 12 73 4.8 6.4 0.15 2.18 2.18 95 1010.2
20260505215004 12 72 3.2 6.4 0.15 2.18 2.18 95 1010.3
20260505214504 12 62 3.2 6.4 0.15 2.18 2.18 95 1010.6
20260505214004 12 44 3.2 6.4 0.13 2.16 2.16 95 1010.5
20260505213504 12 79 4.8 6.4 0.10 2.13 2.13 95 1010.6
20260505213004 12 96 4.8 6.4 0.05 2.11 2.11 95 1010.6
20260505212503 12 107 4.8 6.4 0.03 2.06 2.06 95 1010.7
20260505212004 12 129 6.4 9.7 0.00 2.03 2.03 95 1010.8
20260505211504 12 138 9.7 12.9 0.00 2.03 2.03 95 1010.9
20260505211004 12 141 9.7 12.9 0.00 2.03 2.03 95 1010.9
20260505210504 12 133 8.0 12.9 0.00 2.03 2.03 95 1010.8
20260505210004 12 128 8.0 11.3 0.00 2.03 2.03 94 1010.9
20260505205504 12 135 8.0 9.7 0.00 2.03 2.03 94 1010.8
20260505205004 12 132 8.0 12.9 0.00 2.03 2.03 94 1010.9
20260505204504 12 137 9.7 12.9 0.00 2.03 2.03 94 1010.9
20260505204004 12 143 8.0 12.9 0.00 2.03 2.03 94 1011.1
20260505203504 12 132 9.7 12.9 0.03 2.03 2.03 94 1011.1
20260505203025 12 132 11.3 12.9 0.05 2.03 2.03 94 1011.0
20260505202504 12 156 9.7 12.9 0.13 2.03 2.03 94 1011.0
20260505202004 12 145 9.7 11.3 0.15 2.03 2.03 94 1011.1
20260505201504 11 131 9.7 12.9 0.15 2.03 2.03 94 1011.0
20260505201004 11 139 8.0 12.9 0.18 2.03 2.03 94 1011.1
20260505200504 11 144 9.7 11.3 0.23 2.03 2.03 94 1011.1
20260505200004 11 172 11.3 12.9 0.23 2.03 2.03 94 1010.8
20260505195504 11 169 9.7 12.9 0.30 2.03 2.03 94 1010.9
20260505195004 11 148 6.4 12.9 0.30 2.03 2.03 94 1010.8
20260505194504 11 213 1.6 4.8 0.30 2.03 2.03 94 1010.8
20260505194004 11 0 0.0 0.0 0.30 2.03 2.03 94 1010.8
20260505193525 11 0 0.0 0.0 0.30 2.01 2.03 94 1010.8
20260505193004 11 0 0.0 0.0 0.28 1.98 1.98 94 1010.8
20260505192504 11 0 0.0 0.0 0.20 1.93 1.93 94 1011.0
20260505192004 11 0 0.0 0.0 0.20 1.88 1.88 93 1010.8
20260505191504 11 350 0.0 3.2 0.20 1.88 1.88 93 1010.6
20260505191025 11 359 1.6 3.2 0.18 1.85 1.85 93 1010.8
20260505190504 11 356 3.2 3.2 0.18 1.80 1.80 94 1010.7
20260505190004 11 335 1.6 3.2 0.18 1.80 1.80 94 1010.8
20260505185504 11 172 1.6 4.8 0.18 1.75 1.75 94 1010.5
20260505185004 11 135 1.6 4.8 0.18 1.75 1.75 94 1010.5
20260505184504 11 153 1.6 6.4 0.18 1.75 1.75 94 1010.5
20260505184024 11 121 3.2 6.4 0.18 1.75 1.75 94 1010.5
20260505183504 11 111 4.8 11.3 0.15 1.70 1.70 94 1010.5
20260505183004 11 117 6.4 11.3 0.18 1.70 1.70 94 1010.6
20260505182504 11 70 4.8 9.7 0.18 1.70 1.70 93 1010.4
20260505182003 11 32 4.8 6.4 0.18 1.68 1.68 93 1010.5
20260505181504 11 37 4.8 6.4 0.20 1.68 1.68 93 1010.5
20260505181003 11 47 1.6 6.4 0.23 1.68 1.68 93 1010.5
20260505180504 11 15 0.0 1.6 0.18 1.63 1.63 93 1010.5
20260505180004 11 15 0.0 1.6 0.18 1.63 1.63 93 1010.6
20260505175504 11 315 0.0 1.6 0.15 1.55 1.55 93 1010.5
20260505175004 11 295 1.6 3.2 0.18 1.55 1.55 93 1010.5
20260505174504 11 238 3.2 4.8 0.20 1.55 1.55 93 1010.6
20260505174004 11 325 4.8 4.8 0.28 1.55 1.55 93 1010.6
20260505173504 11 13 4.8 8.0 0.30 1.55 1.55 93 1010.5
20260505173025 11 6 6.4 8.0 0.30 1.52 1.52 93 1010.6
20260505172504 11 2 4.8 6.4 0.30 1.52 1.52 93 1010.6
20260505172004 11 1 4.8 6.4 0.28 1.50 1.50 93 1010.6
20260505171525 11 6 6.4 8.0 0.23 1.47 1.47 93 1010.6
20260505171004 11 12 3.2 8.0 0.20 1.45 1.45 93 1010.6
20260505170503 11 359 1.6 4.8 0.23 1.45 1.45 93 1010.6
20260505170004 11 358 3.2 6.4 0.23 1.45 1.45 93 1010.7
20260505165504 11 347 4.8 6.4 0.20 1.42 1.42 93 1010.7
20260505165004 11 355 4.8 6.4 0.18 1.37 1.37 93 1010.5
20260505164504 11 7 6.4 6.4 0.18 1.35 1.35 93 1010.6
20260505164003 11 14 3.2 6.4 0.13 1.30 1.30 93 1010.7
20260505163504 11 22 1.6 4.8 0.10 1.27 1.27 93 1010.6
20260505163004 11 12 3.2 6.4 0.05 1.22 1.22 93 1010.8
20260505162504 11 8 4.8 6.4 0.05 1.22 1.22 93 1010.8
20260505162004 11 1 6.4 6.4 0.05 1.22 1.22 93 1010.7
20260505161504 11 3 4.8 6.4 0.05 1.22 1.22 92 1010.7
20260505161003 11 10 1.6 6.4 0.05 1.22 1.22 92 1010.6
20260505160503 11 337 1.6 6.4 0.03 1.19 1.19 92 1010.8
20260505153003 11 1 4.8 6.4 0.10 1.17 1.17 92 1010.9
20260505152504 11 354 4.8 6.4 0.10 1.17 1.17 92 1011.0
20260505152004 11 2 4.8 6.4 0.10 1.17 1.17 92 1011.1
20260505151525 11 10 6.4 9.7 0.10 1.17 1.17 92 1011.1
20260505151003 11 13 4.8 9.7 0.10 1.17 1.17 92 1011.0
20260505150503 11 10 3.2 4.8 0.10 1.17 1.17 92 1010.9